Weather History for KLXN - October, 2013

Change the Weather History Date:

Saturday, October 19, 2013

  Actual Average Record
Temperature  
Mean Temperature 48 °F -  
Max Temperature 65 °F 61 °F 86 °F (2003)
Min Temperature 31 °F 35 °F 24 °F (2006)
Degree Days  
Heating Degree Days 17    
Moisture  
Dew Point 32 °F    
Average Humidity 63    
Maximum Humidity 89    
Minimum Humidity 30    
Precipitation  
Precipitation 0.00 in - - ()
Sea Level Pressure  
Sea Level Pressure 29.92 in    
Wind  
Wind Speed 7 mph (West)    
Max Wind Speed 22 mph    
Max Gust Speed 28 mph    
Visibility 10 miles    
Events      
Averages and records for this station are not official NWS values.
T = Trace of Precipitation, MM = Missing Value Source: NWS Daily Summary

Daily Weather History Graph

Daily Weather History Graph

Search for Another Location

Airport or City:

Trip Planner

Search our weather history database for the weather conditions in past years. The results will help you decide how hot, cold, wet, or windy it might be!

Date:

Astronomy

Oct. 19, 2013 Rise Set
Actual Time 7:55 AM CDT 6:52 PM CDT
Civil Twilight 7:27 AM CDT 7:20 PM CDT
Nautical Twilight 6:55 AM CDT 7:51 PM CDT
Astronomical Twilight 6:23 AM CDT 8:23 PM CDT
Moon 7:20 PM CDT (10/19) 8:34 AM CDT (10/19)
Length of Visible Light 11h 52m
Length of Day
10h 57m
Waxing Gibbous, 99% of the Moon is Illuminated
Oct 19
Waxing Gibbous
Oct 26
Last Quarter
Nov 3
New
Nov 9
First Quarter
Nov 17
Full

Hourly Weather History & Observations

Time (CDT) Temp. Windchill Dew Point Humidity Pressure Visibility Wind Dir Wind Speed Gust Speed Precip Events Conditions
12:15 AM 33.3 °F 27.1 °F 30.2 °F 89% 30.05 in 10.0 mi West 6.9 mph - N/A   Clear
12:35 AM 34.0 °F 28.8 °F 30.7 °F 88% 30.04 in 10.0 mi West 5.8 mph - N/A   Clear
12:55 AM 34.9 °F 29.9 °F 31.5 °F 87% 30.04 in 10.0 mi West 5.8 mph - N/A   Clear
1:15 AM 36.0 °F 32.1 °F 31.8 °F 85% 30.03 in 10.0 mi West 4.6 mph - N/A   Clear
1:35 AM 36.0 °F 32.1 °F 32.0 °F 86% 30.03 in 10.0 mi West 4.6 mph - N/A   Clear
1:55 AM 35.4 °F 30.5 °F 32.0 °F 87% 30.03 in 10.0 mi WNW 5.8 mph - N/A   Clear
2:15 AM 34.9 °F 32.0 °F 32.0 °F 89% 30.03 in 10.0 mi WNW 3.5 mph - N/A   Clear
2:35 AM 36.7 °F 30.5 °F 32.4 °F 84% 30.03 in 10.0 mi West 8.1 mph - N/A   Scattered Clouds
2:55 AM 37.8 °F 31.8 °F 32.0 °F 80% 30.03 in 10.0 mi West 8.1 mph - N/A   Overcast
3:15 AM 37.9 °F 31.5 °F 31.3 °F 77% 30.02 in 10.0 mi West 9.2 mph - N/A   Mostly Cloudy
3:35 AM 36.5 °F 30.3 °F 30.4 °F 78% 30.02 in 10.0 mi WSW 8.1 mph - N/A   Scattered Clouds
3:55 AM 36.5 °F 30.3 °F 29.5 °F 76% 30.01 in 10.0 mi West 8.1 mph - N/A   Clear
4:15 AM 36.0 °F 31.1 °F 29.1 °F 76% 30.00 in 10.0 mi West 5.8 mph - N/A   Clear
4:35 AM 34.2 °F 29.0 °F 28.6 °F 80% 29.99 in 10.0 mi West 5.8 mph - N/A   Scattered Clouds
4:55 AM 33.8 °F 28.6 °F 28.4 °F 81% 29.99 in 10.0 mi West 5.8 mph - N/A   Scattered Clouds
5:15 AM 32.0 °F 25.6 °F 28.0 °F 85% 29.98 in 10.0 mi West 6.9 mph - N/A   Clear
5:35 AM 32.0 °F 25.6 °F 28.0 °F 85% 29.98 in 10.0 mi West 6.9 mph - N/A   Clear
5:55 AM 31.8 °F 26.2 °F 27.3 °F 83% 29.98 in 10.0 mi West 5.8 mph - N/A   Clear
6:15 AM 31.6 °F 26.0 °F 27.3 °F 84% 29.97 in 10.0 mi West 5.8 mph - N/A   Clear
6:35 AM 31.6 °F 25.1 °F 27.1 °F 83% 29.97 in 10.0 mi West 6.9 mph - N/A   Clear
6:55 AM 32.2 °F 27.7 °F 27.5 °F 83% 29.97 in 10.0 mi WSW 4.6 mph - N/A   Clear
7:15 AM 32.5 °F 29.3 °F 27.3 °F 81% 29.96 in 10.0 mi West 3.5 mph - N/A   Clear
7:35 AM 32.2 °F 28.9 °F 27.3 °F 82% 29.96 in 10.0 mi NW 3.5 mph - N/A   Scattered Clouds
7:55 AM 31.1 °F 27.7 °F 27.5 °F 87% 29.96 in 10.0 mi West 3.5 mph - N/A   Scattered Clouds
8:15 AM 31.5 °F 26.8 °F 28.0 °F 87% 29.95 in 10.0 mi West 4.6 mph - N/A   Scattered Clouds
8:35 AM 32.5 °F 29.3 °F 28.8 °F 86% 29.95 in 10.0 mi WSW 3.5 mph - N/A   Clear
8:55 AM 34.7 °F 31.8 °F 30.6 °F 85% 29.95 in 10.0 mi WSW 3.5 mph - N/A   Clear
9:15 AM 37.9 °F 34.4 °F 32.4 °F 80% 29.95 in 10.0 mi West 4.6 mph - N/A   Clear
9:35 AM 41.7 °F 36.7 °F 32.9 °F 71% 29.95 in 10.0 mi West 8.1 mph - N/A   Scattered Clouds
9:55 AM 44.4 °F 40.0 °F 32.7 °F 64% 29.95 in 10.0 mi West 8.1 mph - N/A   Scattered Clouds
10:15 AM 46.4 °F 41.9 °F 33.3 °F 60% 29.95 in 10.0 mi West 9.2 mph - N/A   Mostly Cloudy
10:35 AM 48.6 °F - 33.3 °F 56% 29.95 in 10.0 mi West 12.7 mph - N/A   Scattered Clouds
10:55 AM 50.5 °F - 33.6 °F 52% 29.95 in 10.0 mi West 10.4 mph - N/A   Clear
11:15 AM 53.4 °F - 34.3 °F 48% 29.94 in 10.0 mi West 11.5 mph 17.3 mph N/A   Clear
11:35 AM 55.4 °F - 32.4 °F 42% 29.94 in 10.0 mi West 12.7 mph - N/A   Clear
11:55 AM 57.2 °F - 32.7 °F 40% 29.93 in 10.0 mi WNW 13.8 mph 18.4 mph N/A   Clear
1:55 PM 61.7 °F - 33.4 °F 35% 29.90 in 10.0 mi WNW 13.8 mph 21.9 mph N/A   Clear
2:15 PM 62.6 °F - 32.9 °F 33% 29.89 in 10.0 mi WNW 17.3 mph 20.7 mph N/A   Clear
2:35 PM 63.7 °F - 32.9 °F 32% 29.89 in 10.0 mi WNW 18.4 mph 27.6 mph N/A   Clear
2:55 PM 63.3 °F - 32.7 °F 32% 29.88 in 10.0 mi WNW 15.0 mph 23.0 mph N/A   Scattered Clouds
3:15 PM 64.4 °F - 33.3 °F 31% 29.87 in 10.0 mi WNW 21.9 mph 27.6 mph N/A   Scattered Clouds
3:35 PM 64.6 °F - 34.2 °F 32% 29.86 in 10.0 mi WNW 13.8 mph 24.2 mph N/A   Scattered Clouds
3:55 PM 65.3 °F - 33.4 °F 31% 29.86 in 10.0 mi WNW 12.7 mph 23.0 mph N/A   Scattered Clouds
4:15 PM 65.3 °F - 33.6 °F 31% 29.86 in 10.0 mi West 13.8 mph - N/A   Scattered Clouds
4:35 PM 65.7 °F - 34.0 °F 31% 29.85 in 10.0 mi WNW 15.0 mph 19.6 mph N/A   Clear
4:55 PM 65.5 °F - 33.6 °F 31% 29.85 in 10.0 mi WNW 17.3 mph 23.0 mph N/A   Clear
5:15 PM 65.3 °F - 33.3 °F 30% 29.85 in 10.0 mi WNW 15.0 mph - N/A   Scattered Clouds
5:35 PM 64.8 °F - 34.3 °F 32% 29.84 in 10.0 mi West 10.4 mph - N/A   Scattered Clouds
5:55 PM 63.7 °F - 34.0 °F 33% 29.84 in 10.0 mi West 9.2 mph - N/A   Scattered Clouds
6:15 PM 62.2 °F - 33.4 °F 34% 29.84 in 10.0 mi West 8.1 mph - N/A   Clear
6:35 PM 60.3 °F - 33.6 °F 37% 29.84 in 10.0 mi West 6.9 mph - N/A   Clear
6:55 PM 57.4 °F - 32.9 °F 40% 29.84 in 10.0 mi WSW 5.8 mph - N/A   Clear
7:15 PM 55.2 °F - 34.0 °F 45% 29.84 in 10.0 mi WSW 6.9 mph - N/A   Clear
7:35 PM 52.7 °F - 33.3 °F 48% 29.85 in 10.0 mi WSW 5.8 mph - N/A   Clear
7:55 PM 51.3 °F - 32.9 °F 50% 29.85 in 10.0 mi WSW 4.6 mph - N/A   Clear
8:15 PM 48.2 °F - 33.4 °F 57% 29.85 in 10.0 mi WSW 4.6 mph - N/A   Clear
8:35 PM 46.2 °F 43.3 °F 33.6 °F 61% 29.84 in 10.0 mi SW 5.8 mph - N/A   Clear
8:55 PM 45.9 °F 42.3 °F 33.3 °F 61% 29.84 in 10.0 mi SW 6.9 mph - N/A   Clear
9:15 PM 47.8 °F - 32.9 °F 56% 29.83 in 10.0 mi SW 8.1 mph - N/A   Clear
9:35 PM 47.1 °F - 32.4 °F 57% 29.83 in 10.0 mi SW 8.1 mph - N/A   Clear
9:55 PM 45.9 °F 43.6 °F 32.4 °F 59% 29.83 in 10.0 mi WSW 4.6 mph - N/A   Clear
10:15 PM 44.6 °F 41.4 °F 32.5 °F 63% 29.83 in 10.0 mi SW 5.8 mph - N/A   Clear
10:35 PM 42.8 °F 41.1 °F 33.3 °F 69% 29.83 in 10.0 mi SW 3.5 mph - N/A   Clear
10:55 PM 44.4 °F 42.9 °F 32.7 °F 64% 29.83 in 10.0 mi WSW 3.5 mph - N/A   Clear
11:15 PM 42.6 °F - 32.2 °F 67% 29.83 in 10.0 mi Calm Calm - N/A   Clear
11:35 PM 41.2 °F - 32.7 °F 72% 29.83 in 10.0 mi Calm Calm - N/A   Clear
11:55 PM 39.4 °F 35.2 °F 32.5 °F 76% 29.83 in 10.0 mi North 5.8 mph - N/A   Clear